Wind_Speed
36 35 35 34 33 31 29 31 34 34 31 33 39 50 53 40 10 20 35 32 36 29 25 20 15 15 9 10 6 5 24 29 36 49 36 19 30 36 37 27 7 13 22 22
37 36 36 37 35 34 33 35 36 33 34 45 52 50 45 47 30 29 18 25 31 35 17 17 19 11 7 15 15 8 8 15 23 26 34 43 38 30 32 38 30 31 14 13
37 37 38 38 37 38 38 34 37 40 44 53 47 47 45 43 41 41 31 31 29 25 30 29 25 28 18 17 16 15 23 19 20 22 21 18 27 30 27 38 34 28 35 32
37 38 38 39 40 40 43 43 41 49 45 61 55 47 45 44 44 36 24 40 44 30 30 30 42 29 20 17 22 20 23 22 21 30 34 30 40 24 30 40 40 30 30 29
39 39 41 42 44 42 46 52 59 48 57 38 46 56 58 54 35 38 31 42 29 29 42 35 25 21 22 22 16 19 22 20 25 34 25 36 39 44 34 37 36 37 33 31
39 39 39 41 40 41 49 57 58 54 43 48 41 64 59 49 44 33 25 22 26 30 25 28 31 36 30 25 21 14 18 21 18 17 20 26 27 54 43 35 35 37 35 35
33 30 31 32 38 44 55 60 63 56 48 50 68 57 48 48 43 40 41 31 19 19 12 17 19 31 33 30 26 20 18 14 13 30 39 9 40 32 42 43 41 33 27 32
34 34 36 39 42 45 52 56 60 61 58 52 48 63 56 45 47 43 40 32 24 5 15 23 21 24 33 34 24 21 20 19 13 11 21 29 30 27 26 25 40 43 37 30
35 36 38 41 44 47 49 53 56 41 44 67 64 49 51 49 49 41 44 30 22 24 20 14 26 14 19 9 12 15 17 18 19 14 8 7 14 30 30 18 28 26 51 42
34 35 37 40 41 48 52 53 52 56 49 42 50 61 57 44 43 46 39 36 24 31 35 31 26 27 22 18 14 14 14 19 26 21 14 21 27 13 16 29 27 11 13 24
35 36 39 39 40 44 53 53 53 52 51 35 32 53 48 48 42 40 41 34 33 30 37 29 26 19 25 26 20 16 13 10 14 12 10 15 22 5 7 17 19 24 24 17
32 37 39 40 41 43 47 54 52 50 46 34 26 24 30 42 40 33 36 35 30 29 27 30 21 27 15 26 24 27 23 25 16 20 22 23 21 25 11 8 26 19 20 24
34 34 37 42 42 44 47 51 52 50 43 43 43 29 16 29 33 30 28 32 31 29 35 28 27 24 27 19 27 28 28 27 32 26 24 14 20 27 18 15 15 18 22 19
29 32 30 36 41 42 48 50 49 50 46 43 44 41 43 25 32 27 30 30 30 33 33 36 27 26 33 29 29 25 17 22 28 31 27 25 18 24 26 15 18 24 17 14
18 25 32 35 36 41 47 46 46 37 39 26 41 28 43 42 35 40 34 31 33 30 29 42 33 31 21 22 19 22 32 29 26 27 18 23 18 14 18 19 23 30 34 18
20 24 28 34 36 38 43 45 40 34 32 13 30 22 20 29 33 30 32 31 31 33 44 44 39 34 29 23 25 24 26 26 24 21 20 15 14 17 19 16 18 17 33 24
25 30 34 37 39 42 43 41 39 38 37 18 17 19 21 23 26 28 29 34 33 35 40 23 29 26 28 33 34 26 24 25 24 22 21 24 24 21 19 21 21 22 18 19
36 40 40 39 36 30 33 31 31 29 10 12 10 15 25 26 27 23 19 15 14 17 23 37 18 23 24 20 31 39 26 24 23 22 26 28 28 27 24 22 20 22 19 21
37 39 34 32 24 33 28 25 24 19 16 7 10 17 18 22 19 16 13 12 15 17 20 22 18 20 17 16 14 22 31 31 28 26 26 26 25 26 22 20 20 19 18 18
36 37 35 28 29 31 33 29 21 13 16 12 15 13 10 25 25 22 16 11 11 7 14 16 22 14 26 21 24 15 25 22 25 24 21 21 21 19 19 21 21 21 20 14
29 36 37 31 30 26 16 9 8 7 7 9 8 5 5 12 19 21 12 8 6 5 6 8 6 8 11 12 14 15 18 21 18 14 21 22 21 19 17 17 16 16 18 16
26 31 31 26 18 9 7 8 8 5 5 8 11 11 10 8 19 16 11 7 9 4 16 10 6 2 4 8 11 13 18 23 24 22 26 27 21 20 19 21 21 21 23 20
28 19 11 6 5 5 6 5 6 6 8 9 9 9 12 11 7 11 8 8 6 8 12 5 2 4 7 9 11 14 14 16 24 25 27 29 29 29 27 26 26 26 22 20
12 7 6 4 5 5 7 11 12 10 8 7 8 7 6 9 11 8 5 9 12 7 4 4 2 1 2 2 3 3 6 9 10 7 6 7 9 11 10 10 10 7 8 10
4 4 4 5 10 14 12 12 10 9 9 7 5 6 8 13 5 7 6 5 6 5 6 7 7 6 8 11 12 11 10 11 13 14 13 14 14 12 11 13 12 10 9 7
3 4 10 11 12 12 11 7 5 11 8 6 6 6 5 5 6 5 5 6 5 10 12 11 14 15 17 18 20 20 19 17 17 16 15 15 14 14 13 12 11 10 9 8
7 8 8 8 11 10 8 8 6 7 7 6 6 5 4 6 6 5 6 12 22 17 16 17 20 22 21 18 16 15 14 13 12 12 11 11 11 12 10 7 8 8 6 4
Wind_Direction
264 258 251 241 234 229 215 221 226 229 215 207 219 229 227 228 205 215 243 243 251 260 260 274 268 248 261 256 277 260 234 245 236 248 239 238 238 242 237 225 201 233 238 247
265 254 244 238 231 223 211 220 224 228 223 225 229 230 233 233 235 228 230 233 239 243 253 253 266 266 252 260 291 275 294 234 243 251 253 241 245 239 239 234 238 228 212 239
261 251 243 239 232 224 210 219 220 221 226 235 237 235 237 237 238 233 229 238 245 251 248 236 248 248 271 277 283 286 279 275 262 253 260 249 249 245 243 229 229 230 233 247
256 249 243 239 236 229 206 216 222 221 215 231 234 237 243 245 238 238 236 241 243 241 256 254 240 249 274 293 285 291 284 280 286 264 252 261 246 251 241 233 233 232 241 246
258 252 246 241 235 228 207 212 218 222 226 232 235 234 241 240 241 239 249 238 241 245 247 252 258 248 252 292 293 285 289 258 299 302 264 248 257 248 247 240 236 242 248 257
257 250 244 237 228 207 211 214 219 227 230 228 232 236 239 235 237 239 245 254 257 246 253 259 264 255 260 276 290 277 279 279 289 296 312 267 263 243 239 245 244 246 251 254
246 235 227 222 212 211 213 216 220 220 226 229 236 240 243 240 235 245 244 241 237 255 242 266 272 253 258 263 271 282 282 295 259 283 315 251 242 250 243 243 243 241 252 253
244 237 227 218 213 214 213 217 220 226 229 233 242 241 243 245 245 245 252 247 232 197 247 261 273 271 252 257 263 269 266 271 262 255 281 282 247 234 223 235 245 243 248 249
245 240 233 227 218 212 219 225 224 217 228 234 237 239 241 237 245 247 252 257 239 223 235 261 238 238 236 231 227 252 251 253 245 238 258 292 318 256 233 234 274 247 247 253
243 237 232 226 219 212 214 221 228 222 231 239 236 237 236 241 240 248 255 248 246 228 231 248 248 248 243 233 225 205 213 228 225 241 235 262 271 241 231 226 248 238 245 233
238 234 231 225 221 216 213 216 224 226 227 224 242 235 241 239 238 247 252 238 231 229 234 237 236 243 233 226 219 228 251 247 250 205 208 255 271 256 194 217 235 243 248 235
243 237 229 222 215 209 210 216 219 224 230 225 220 213 223 237 246 241 232 236 238 229 228 228 235 230 231 227 226 239 237 230 261 256 261 285 283 288 285 312 232 242 238 238
243 237 226 216 211 204 202 210 217 221 226 233 230 215 224 231 218 212 230 235 231 234 235 231 236 229 226 221 233 241 228 256 261 260 269 266 295 319 259 315 269 241 249 249
232 216 207 202 201 198 199 207 214 217 222 230 233 230 225 226 218 208 226 230 229 227 233 220 229 231 231 233 237 252 268 247 244 247 262 286 296 290 262 274 277 253 254 245
185 191 192 190 193 193 194 202 212 212 210 226 229 226 222 227 223 221 214 224 228 233 235 221 226 229 225 226 233 242 235 249 245 261 293 287 290 308 272 267 289 257 252 249
148 161 170 179 174 177 182 197 207 201 203 217 202 190 219 206 207 211 220 219 231 235 221 218 227 228 223 229 239 245 240 241 250 251 256 259 261 260 280 283 294 306 252 246
122 137 144 149 162 174 187 189 190 187 188 188 178 186 184 191 200 209 224 241 242 218 221 237 213 226 227 234 244 244 235 227 233 239 245 251 253 259 266 278 286 291 303 273
120 120 127 133 143 149 172 177 188 172 124 114 128 135 174 197 205 209 207 203 218 227 243 238 225 217 219 223 235 230 225 224 236 247 251 261 263 266 271 279 283 278 279 267
115 125 126 134 148 135 163 172 135 130 102 100 147 158 165 183 186 196 205 214 233 241 244 238 238 228 226 219 238 229 232 235 241 253 262 263 265 268 271 274 276 278 277 275
118 126 123 125 131 127 145 135 130 134 132 122 128 132 156 181 190 195 197 203 206 216 228 241 222 217 219 232 237 253 239 245 251 251 247 260 266 276 270 266 274 279 275 276
111 121 123 125 131 130 120 99 98 113 137 181 188 190 143 160 183 184 170 169 184 194 216 206 239 179 202 224 239 250 245 246 266 256 261 267 257 254 264 264 267 275 278 280
125 116 110 111 101 88 89 113 116 123 147 151 188 191 171 168 174 174 168 166 169 164 173 183 164 223 231 244 253 262 269 266 266 265 265 280 285 281 278 277 275 275 279 285
122 116 99 85 96 113 134 122 129 130 144 165 150 150 187 218 150 144 157 171 164 167 176 159 134 237 233 245 253 261 273 288 284 271 269 272 279 282 282 279 279 281 272 265
107 85 86 90 93 93 121 130 131 143 143 135 144 190 221 182 160 154 145 147 161 155 109 110 96 247 215 224 260 299 300 286 274 270 264 262 261 260 254 245 237 225 229 214
95 73 75 90 112 122 128 140 133 152 166 171 174 230 177 157 155 127 140 164 90 106 137 125 99 98 100 100 98 98 97 95 94 91 92 91 87 89 96 92 90 89 89 94
63 83 105 122 126 128 137 165 135 139 176 195 194 158 155 124 110 113 90 114 89 130 124 119 114 114 111 109 106 103 100 99 96 95 92 91 92 89 84 86 90 89 89 85
125 127 125 125 140 149 159 147 147 174 212 236 165 141 87 111 95 89 89 115 124 125 126 125 124 120 116 109 102 98 97 94 89 85 85 84 80 73 73 76 84 86 85 85
Height
2963 2965 2968 2971 2976 2982 2986 2990 2991 2994 3000 3003 2997 2988 2992 3002 3009 3013 3018 3020 3019 3021 3026 3028 3030 3032 3035 3032 3033 3035 3040 3038 3036 3034 3040 3045 3047 3047 3049 3050 3053 3053 3054 3051
2950 2953 2956 2960 2966 2971 2977 2980 2983 2986 2992 2984 2977 2983 2992 2998 3002 3010 3010 3011 3013 3017 3022 3027 3026 3028 3030 3031 3032 3032 3033 3033 3034 3033 3035 3033 3036 3039 3042 3044 3047 3043 3049 3048
2936 2940 2944 2948 2953 2960 2967 2972 2974 2976 2974 2969 2975 2982 2985 2989 2994 3001 3005 3008 3009 3012 3014 3020 3018 3022 3026 3028 3031 3031 3032 3033 3032 3029 3032 3034 3032 3034 3036 3038 3036 3038 3036 3043
2922 2926 2930 2935 2941 2948 2955 2958 2958 2957 2954 2957 2968 2976 2976 2981 2984 2992 3001 3000 3005 3009 3006 3010 3011 3019 3023 3025 3020 3023 3027 3029 3027 3022 3025 3026 3026 3027 3029 3026 3029 3031 3034 3035
2907 2911 2916 2921 2928 2935 2941 2944 2944 2947 2951 2957 2964 2967 2958 2967 2980 2987 2989 2993 3000 3003 2999 3008 3008 3013 3017 3017 3021 3022 3023 3020 3020 3013 3017 3020 3018 3018 3019 3020 3023 3025 3028 3028
2894 2897 2902 2908 2914 2923 2926 2932 2935 2942 2945 2951 2956 2937 2937 2965 2978 2981 2985 2991 2994 2998 3002 3006 3006 3007 3010 3012 3015 3016 3017 3018 3016 3013 3015 3015 3011 2998 3011 3014 3016 3018 3019 3025
2880 2885 2890 2896 2902 2908 2915 2918 2926 2934 2933 2939 2922 2941 2954 2961 2969 2973 2980 2986 2991 2995 3000 3001 3000 3001 3003 3004 3006 3009 3011 3010 3014 3018 3014 3005 2989 3000 3005 3008 3011 3013 3017 3020
2867 2872 2878 2884 2891 2898 2903 2911 2917 2921 2923 2926 2934 2935 2943 2956 2963 2967 2972 2980 2990 2993 2997 2998 2997 2995 2997 2997 3002 3004 3007 3008 3013 3013 3010 3000 2991 2995 2999 3002 3001 3008 3009 3013
2854 2859 2865 2872 2880 2888 2894 2898 2906 2913 2917 2917 2924 2934 2939 2947 2951 2965 2962 2975 2985 2987 2990 2991 2988 2990 2990 2995 2996 2998 3001 3003 3005 3008 3012 3005 2996 2994 2997 2998 2992 3000 3004 3007
2841 2846 2852 2859 2867 2876 2883 2888 2894 2904 2909 2915 2920 2922 2928 2941 2947 2950 2961 2968 2976 2982 2980 2983 2984 2984 2987 2988 2989 2993 2995 2997 2997 2997 3002 2997 2989 2986 2989 2992 2994 2995 2997 2999
2827 2833 2839 2846 2855 2865 2871 2878 2885 2893 2900 2909 2911 2917 2924 2931 2938 2943 2951 2963 2966 2972 2974 2975 2975 2977 2979 2982 2982 2984 2989 2993 2992 2992 2995 2990 2983 2980 2980 2982 2985 2989 2991 2992
2814 2819 2825 2833 2843 2854 2864 2871 2876 2887 2894 2901 2910 2913 2919 2925 2929 2942 2946 2951 2957 2962 2965 2968 2969 2971 2974 2975 2977 2981 2985 2984 2986 2985 2983 2980 2979 2976 2976 2978 2981 2983 2984 2984
2800 2804 2811 2821 2832 2844 2855 2865 2872 2881 2888 2896 2903 2908 2915 2918 2922 2931 2939 2942 2950 2954 2957 2962 2964 2965 2969 2970 2970 2975 2976 2978 2977 2979 2979 2977 2971 2973 2974 2976 2975 2976 2975 2976
2785 2792 2800 2811 2823 2836 2848 2856 2865 2876 2886 2890 2892 2901 2909 2914 2920 2925 2932 2938 2943 2949 2951 2954 2956 2958 2961 2963 2967 2969 2972 2974 2973 2973 2970 2969 2970 2969 2968 2970 2968 2971 2972 2970
2776 2784 2795 2806 2817 2829 2841 2852 2862 2873 2886 2886 2890 2895 2901 2907 2914 2919 2926 2932 2937 2940 2943 2944 2946 2952 2957 2958 2962 2963 2967 2967 2967 2965 2966 2963 2965 2967 2965 2964 2963 2964 2966 2966
2780 2787 2794 2805 2818 2830 2841 2853 2861 2872 2879 2884 2885 2891 2896 2901 2909 2914 2920 2924 2929 2932 2934 2934 2941 2946 2953 2954 2955 2957 2960 2961 2960 2959 2960 2961 2962 2962 2959 2959 2960 2958 2959 2961
2789 2792 2800 2810 2820 2831 2841 2851 2858 2866 2875 2882 2887 2889 2894 2899 2905 2911 2916 2918 2916 2922 2927 2929 2935 2941 2946 2948 2949 2952 2954 2953 2953 2953 2956 2956 2959 2958 2956 2954 2953 2953 2952 2955
2801 2806 2812 2821 2832 2842 2850 2855 2858 2865 2868 2875 2881 2886 2892 2897 2901 2906 2907 2911 2913 2917 2921 2924 2931 2937 2938 2939 2938 2943 2945 2946 2947 2949 2951 2952 2953 2952 2951 2949 2949 2949 2949 2951
2815 2821 2827 2833 2837 2844 2851 2857 2864 2869 2875 2878 2882 2886 2891 2896 2900 2905 2909 2911 2913 2917 2919 2925 2930 2931 2932 2928 2932 2935 2939 2940 2941 2945 2946 2948 2946 2945 2942 2942 2944 2945 2945 2945
2826 2830 2834 2840 2844 2848 2855 2863 2868 2874 2877 2881 2884 2887 2888 2894 2898 2903 2909 2911 2913 2914 2919 2921 2922 2921 2921 2923 2927 2931 2933 2935 2937 2938 2939 2940 2938 2936 2935 2938 2940 2940 2939 2939
2837 2840 2842 2846 2852 2857 2861 2865 2871 2876 2880 2883 2885 2887 2890 2894 2897 2901 2906 2908 2909 2910 2913 2917 2918 2917 2918 2921 2923 2925 2927 2930 2930 2932 2934 2932 2932 2932 2932 2933 2933 2933 2934 2934
2846 2847 2851 2855 2859 2862 2866 2869 2873 2875 2878 2880 2883 2886 2889 2892 2895 2900 2904 2905 2907 2908 2911 2913 2913 2917 2918 2920 2921 2921 2924 2925 2926 2926 2925 2923 2924 2926 2927 2928 2928 2928 2928 2928
2852 2854 2856 2859 2862 2864 2868 2870 2873 2875 2877 2879 2881 2884 2887 2890 2892 2895 2900 2901 2904 2907 2907 2909 2913 2914 2916 2915 2916 2916 2917 2916 2917 2916 2917 2917 2917 2917 2918 2919 2919 2919 2920 2920
2856 2856 2857 2860 2861 2864 2866 2869 2873 2875 2878 2879 2881 2884 2886 2887 2889 2893 2896 2899 2902 2904 2907 2910 2912 2912 2913 2913 2913 2913 2912 2912 2914 2913 2913 2913 2913 2913 2914 2914 2913 2912 2913 2913
2858 2858 2859 2861 2864 2867 2870 2872 2874 2876 2878 2880 2881 2883 2884 2885 2886 2889 2893 2896 2898 2903 2906 2909 2911 2913 2913 2913 2913 2913 2913 2914 2915 2915 2914 2914 2914 2915 2914 2913 2913 2913 2913 2914
2860 2860 2863 2865 2868 2870 2872 2873 2875 2876 2877 2878 2879 2880 2882 2883 2884 2888 2891 2895 2900 2905 2908 2910 2912 2914 2916 2916 2916 2917 2917 2918 2919 2919 2919 2918 2918 2918 2917 2916 2916 2916 2916 2916
2864 2865 2865 2868 2871 2873 2874 2875 2875 2876 2877 2876 2876 2876 2880 2884 2886 2891 2894 2898 2901 2905 2909 2912 2915 2917 2919 2921 2921 2922 2923 2924 2924 2924 2924 2923 2922 2921 2921 2920 2919 2918 2918 2918